{"data":{"norad_id":65473,"epoch":"2026-09-20T21:09:37.564992Z","epoch_age_seconds":79003,"freshness":"FRESH","line1":"1 65473U 25195R   26263.88168478  .00013893  00000+0  42147-3 0  9990","line2":"2 65473  53.1626  67.6203 0001141  53.4710 306.6398 15.34406298 59912","mean_motion":15.34406298,"eccentricity":0.0001141,"inclination_deg":53.1626,"raan_deg":67.6203,"arg_perigee_deg":53.471,"mean_anomaly_deg":306.6398,"bstar":0.00042147,"rev_number":5991,"period_min":93.847372881417,"perigee_km":461.90398355231,"apogee_km":463.46505902347,"semimajor_km":6840.8215212879,"source":"CELESTRAK","updated_at":"2026-09-21T09:00:35.616963Z"}}